FIN47U EFHK-EHAM

Flight info

Callsign FIN47U
Flight time N/A
Altitude 40000
Route VALOX Y117 ROSAX DCT KESUR DCT BLUFA
Aircraft A359/H-SDE2E3GHIJ3J4J5LM1ORWXY/LB1D1

Departure

Time N/A
Airport Helsinki Vantaa Airport (EFHK)

Arrival

Time 2026-05-04 10:28
Airport Amsterdam Airport Schiphol (EHAM)
Time Latitude Longitude Altitude Speed Heading
2026-05-04 09:49 54.83391 9.87254 39974 ft 459 kts 233°
2026-05-04 09:49 54.81284 9.83083 39980 ft 461 kts 229°
2026-05-04 09:51 54.66050 9.54584 39970 ft 461 kts 229°
2026-05-04 09:51 54.61715 9.46434 39965 ft 461 kts 229°
2026-05-04 09:52 54.57369 9.38286 39967 ft 462 kts 229°
2026-05-04 09:52 54.53010 9.30142 39976 ft 462 kts 229°
2026-05-04 09:53 54.48647 9.22019 39991 ft 462 kts 229°
2026-05-04 09:53 54.44273 9.13903 39991 ft 462 kts 229°
2026-05-04 09:54 54.39922 9.05854 39985 ft 461 kts 229°
2026-05-04 09:54 54.35538 8.97773 39999 ft 461 kts 229°
2026-05-04 09:55 54.31181 8.89768 40000 ft 461 kts 229°
2026-05-04 09:55 54.26790 8.81728 40001 ft 461 kts 229°
2026-05-04 09:56 54.22417 8.73748 40003 ft 461 kts 229°
2026-05-04 09:56 54.18014 8.65739 39992 ft 461 kts 229°
2026-05-04 09:57 54.14168 8.58766 40000 ft 461 kts 229°
2026-05-04 09:57 54.09786 8.50846 40001 ft 460 kts 228°
2026-05-04 09:58 54.05532 8.43180 40016 ft 460 kts 228°
2026-05-04 09:58 54.01152 8.35314 40015 ft 459 kts 228°
2026-05-04 10:00 53.83498 8.03867 40018 ft 460 kts 228°
2026-05-04 10:04 53.52411 7.49477 40003 ft 460 kts 227°
2026-05-04 10:04 53.47947 7.41768 39996 ft 460 kts 227°
2026-05-04 10:05 53.43482 7.34080 40022 ft 460 kts 227°
2026-05-04 10:05 53.39525 7.27288 40020 ft 460 kts 227°
2026-05-04 10:06 53.35209 7.19903 40027 ft 460 kts 227°
2026-05-04 10:06 53.30733 7.12266 40018 ft 459 kts 227°
2026-05-04 10:08 53.17367 6.89609 36625 ft 451 kts 227°
2026-05-04 10:08 53.15162 6.85891 35979 ft 449 kts 227°
2026-05-04 10:08 53.12963 6.82190 35131 ft 451 kts 227°
2026-05-04 10:08 53.10755 6.78476 34249 ft 453 kts 227°
2026-05-04 10:09 53.08530 6.74743 33307 ft 454 kts 226°
2026-05-04 10:09 53.06308 6.71020 32390 ft 452 kts 227°
2026-05-04 10:09 53.04167 6.67442 31270 ft 440 kts 227°
2026-05-04 10:09 53.03151 6.65746 30576 ft 438 kts 227°
2026-05-04 10:10 53.01670 6.63274 29530 ft 434 kts 227°
2026-05-04 10:10 52.99554 6.59746 27978 ft 427 kts 227°
2026-05-04 10:10 52.97482 6.56296 26848 ft 414 kts 227°
2026-05-04 10:10 52.95489 6.52985 26237 ft 400 kts 227°
2026-05-04 10:11 52.93554 6.49774 25593 ft 386 kts 227°
2026-05-04 10:11 52.91673 6.46655 24270 ft 382 kts 227°
2026-05-04 10:11 52.89777 6.43508 22460 ft 390 kts 227°
2026-05-04 10:11 52.87846 6.40310 20834 ft 393 kts 227°
2026-05-04 10:12 52.85964 6.37205 20183 ft 371 kts 226°
2026-05-04 10:12 52.84217 6.34291 19705 ft 354 kts 229°
2026-05-04 10:12 52.82685 6.31124 19250 ft 355 kts 235°
2026-05-04 10:12 52.81262 6.27771 18719 ft 355 kts 236°
2026-05-04 10:13 52.79864 6.24422 18103 ft 354 kts 236°
2026-05-04 10:13 52.78468 6.21086 17471 ft 351 kts 236°
2026-05-04 10:13 52.77084 6.17791 16883 ft 348 kts 236°
2026-05-04 10:13 52.75710 6.14530 16303 ft 345 kts 236°
2026-05-04 10:14 52.74344 6.11291 15732 ft 342 kts 236°
2026-05-04 10:14 52.72987 6.08082 15162 ft 340 kts 236°
2026-05-04 10:16 52.63850 5.86583 11167 ft 325 kts 236°
2026-05-04 10:16 52.62563 5.83567 10846 ft 316 kts 236°
2026-05-04 10:16 52.61327 5.80676 10690 ft 301 kts 236°
2026-05-04 10:16 52.60151 5.77927 10577 ft 287 kts 236°
2026-05-04 10:17 52.59024 5.75296 10425 ft 274 kts 236°
2026-05-04 10:17 52.57951 5.72793 10311 ft 262 kts 236°
2026-05-04 10:19 52.50614 5.55477 8277 ft 272 kts 240°
2026-05-04 10:19 52.49674 5.52833 7962 ft 271 kts 240°
2026-05-04 10:19 52.49038 5.51025 7732 ft 271 kts 240°
2026-05-04 10:19 52.47859 5.47678 7306 ft 270 kts 240°
2026-05-04 10:20 52.46905 5.44979 6948 ft 271 kts 240°
2026-05-04 10:20 52.45971 5.42338 6592 ft 271 kts 240°
2026-05-04 10:20 52.45031 5.39692 6226 ft 268 kts 240°
2026-05-04 10:20 52.44097 5.37057 5866 ft 267 kts 240°
2026-05-04 10:21 52.43611 5.35689 5697 ft 266 kts 240°
2026-05-04 10:21 52.42711 5.33155 5353 ft 266 kts 240°
2026-05-04 10:21 52.41793 5.30573 5006 ft 265 kts 240°
2026-05-04 10:21 52.40865 5.27969 4656 ft 264 kts 239°
2026-05-04 10:22 52.39019 5.22793 3960 ft 263 kts 239°
2026-05-04 10:22 52.38097 5.20213 3604 ft 262 kts 239°
2026-05-04 10:22 52.37184 5.17658 3323 ft 259 kts 239°
2026-05-04 10:23 52.36311 5.15219 3156 ft 236 kts 239°
2026-05-04 10:23 52.35500 5.12955 3022 ft 229 kts 239°
2026-05-04 10:25 52.32468 4.97864 2227 ft 201 kts 265°
2026-05-04 10:25 52.32386 4.95608 1920 ft 197 kts 265°
2026-05-04 10:25 52.32313 4.93408 1686 ft 190 kts 265°
2026-05-04 10:25 52.32240 4.91327 1418 ft 176 kts 266°
2026-05-04 10:26 52.32174 4.89407 1173 ft 162 kts 266°
2026-05-04 10:26 52.32113 4.87642 964 ft 149 kts 265°
2026-05-04 10:26 52.32057 4.86012 774 ft 138 kts 266°
2026-05-04 10:26 52.32004 4.84495 610 ft 130 kts 265°
2026-05-04 10:27 52.31949 4.83029 430 ft 129 kts 265°
2026-05-04 10:27 52.31903 4.81559 275 ft 129 kts 265°
2026-05-04 10:27 52.31849 4.80098 100 ft 129 kts 265°
2026-05-04 10:27 52.31799 4.78648 6 ft 123 kts 265°
2026-05-04 10:28 52.31760 4.77509 4 ft 65 kts 267°
2026-05-04 10:28 52.31747 4.77138 4 ft 17 kts 263°
2026-05-04 10:28 52.31704 4.76943 3 ft 20 kts 241°
2026-05-04 10:28 52.31629 4.76744 5 ft 21 kts 237°
2026-05-04 10:29 52.31562 4.76566 5 ft 13 kts 244°
2026-05-04 10:29 52.31547 4.76425 6 ft 14 kts 265°
2026-05-04 10:29 52.31539 4.76245 5 ft 18 kts 266°
2026-05-04 10:29 52.31531 4.76030 6 ft 21 kts 267°
2026-05-04 10:30 52.31523 4.75780 5 ft 24 kts 267°
2026-05-04 10:30 52.31515 4.75558 5 ft 12 kts 266°
2026-05-04 10:30 52.31490 4.75457 6 ft 10 kts 212°
2026-05-04 10:30 52.31413 4.75443 5 ft 13 kts 178°
2026-05-04 10:31 52.31358 4.75448 5 ft 0 kts 177°
2026-05-04 10:32 52.31276 4.75363 5 ft 1 kts 266°
2026-05-04 10:33 52.31276 4.75345 5 ft 2 kts 266°
2026-05-04 10:33 52.31275 4.75328 5 ft 1 kts 266°
2026-05-04 10:33 52.31275 4.75325 5 ft 0 kts 266°